Location: Hackbridge
(51.3833°N, 0.1500°W)
Time: 09:07:01
(UTC+00:00)

Cosmos 1833 Rocket - Pass Details

Date: 13 October 2019
Orbit: 833 x 839 km, 71.0° (Epoch: 17 November)

Event Time Altitude Azimuth Distance (km) Brightness Sun altitude
Rises 17:53:41 0° 331° (NNW) 3,393 6.2 -7.2°
Reaches altitude 10° 17:56:35 10° 344° (NNW) 2,456 5.3 -7.6°
Maximum altitude 18:01:11 25° 39° (NE) 1,634 3.9 -8.4°
Enters shadow 18:05:28 11° 92° (E) 2,365 4.3 -9.0°
